IW1QLH-13 Weather Reports


Display with metric or nautical units.
time (UTC)temp
F
wind
direction
speed
MPH
gust
MPH
rain 1hr
in
rain 24hr
in
rain mn
in
humidity
%
barometer
mb
20260904045309 69 0.0 0.0 0.00 0.00 0.00 11 1011.0
20260904043448 69 0.0 0.0 0.00 0.00 0.00 11 1010.8
20260904041727 69 0.0 0.0 0.00 0.00 0.00 11 1010.7
20260904040613 69 0.0 0.0 0.00 0.00 0.00 11 1010.6
20260904035600 69 0.0 0.0 0.00 0.00 0.00 11 1010.8
20260904033435 69 0.0 0.0 0.00 0.00 0.00 11 1010.8
20260904031310 69 0.0 0.0 0.00 0.00 0.00 11 1010.7
20260904030258 69 0.0 0.0 0.00 0.00 0.00 11 1010.8
20260904025245 69 0.0 0.0 0.00 0.00 0.00 11 1010.9
20260904024029 69 0.0 0.0 0.00 0.00 0.00 11 1010.9
20260904022207 71 0.0 0.0 0.00 0.00 0.00 11 1011.0
20260904020851 69 0.0 0.0 0.00 0.00 0.00 11 1010.9
20260904015840 71 0.0 0.0 0.00 0.00 0.00 11 1011.0
20260904013811 71 0.0 0.0 0.00 0.00 0.00 11 1010.9
20260904012355 71 0.0 0.0 0.00 0.00 0.00 11 1010.9
20260904011242 71 0.0 0.0 0.00 0.00 0.00 11 1010.8
20260904005927 71 0.0 1.0 0.00 0.00 0.00 11 1010.8
20260904004915 71 0.0 0.0 0.00 0.00 0.00 11 1010.8
20260904003903 71 0.0 0.0 0.00 0.00 0.00 11 1010.9
20260904002446 71 0.0 0.0 0.00 0.00 0.00 11 1010.9
20260903234845 71 0.0 1.0 0.00 0.00 0.00 11 1010.8
20260903233832 71 0.0 0.0 0.00 0.00 0.00 11 1010.9
20260903232011 73 0.0 0.0 0.00 0.00 0.00 11 1010.9
20260903230448 73 0.0 0.0 0.00 0.00 0.00 11 1010.8
20260903225433 73 0.0 0.0 0.00 0.00 0.00 11 1010.8
20260903224315 73 0.0 0.0 0.00 0.00 0.00 11 1010.8
20260903223303 73 0.0 1.0 0.00 0.00 0.00 11 1010.8
20260903222250 73 0.0 1.0 0.00 0.00 0.00 11 1010.8
20260903221237 73 0.0 1.0 0.00 0.00 0.00 11 1011.0
20260903220226 73 0.0 0.0 0.00 0.00 0.00 11 1011.1
20260903215010 73 1.0 1.0 0.00 0.00 0.00 11 1011.1
20260903213959 73 0.0 0.0 0.00 0.00 0.00 11 1011.0
20260903212541 73 0.0 0.0 0.00 0.00 0.00 11 1011.1
20260903210011 75 0.0 0.0 0.00 0.00 0.00 11 1011.0
20260903204756 75 0.0 0.0 0.00 0.00 0.00 11 1011.0
20260903203644 75 0.0 0.0 0.00 0.00 0.00 11 1011.0
20260903202633 75 0.0 0.0 0.00 0.00 0.00 11 1011.0
20260903201317 75 0.0 0.0 0.00 0.00 0.00 11 1011.0
20260903195455 75 0.0 1.0 0.00 0.00 0.00 11 1010.9
20260903194443 75 0.0 0.0 0.00 0.00 0.00 11 1011.0
20260903193330 77 0.0 0.0 0.00 0.00 0.00 11 1010.8
20260903192218 77 0.0 0.0 0.00 0.00 0.00 11 1010.9
20260903191104 77 0.0 0.0 0.00 0.00 0.00 11 1010.8
20260903190053 77 0.0 0.0 0.00 0.00 0.00 11 1010.7
20260903184940 78 0.0 0.0 0.00 0.00 0.00 11 1010.6
20260903183828 78 0.0 3.0 0.00 0.00 0.00 11 1010.5
20260903182816 78 1.0 3.0 0.00 0.00 0.00 11 1010.4
20260903181804 78 0.0 1.0 0.00 0.00 0.00 11 1010.2
20260903180752 78 0.0 2.0 0.00 0.00 0.00 11 1010.2
20260903175740 78 2.0 4.0 0.00 0.00 0.00 11 1010.2
20260903174727 78 2.0 3.0 0.00 0.00 0.00 11 1010.1
20260903173715 80 0.0 0.0 0.00 0.00 0.00 11 1010.1
20260903172701 80 0.0 1.0 0.00 0.00 0.00 11 1010.2
20260903171647 80 0.0 2.0 0.00 0.00 0.00 11 1010.3
20260903170635 80 0.0 1.0 0.00 0.00 0.00 11 1010.4
20260903165621 80 0.0 1.0 0.00 0.00 0.00 11 1010.2
20260903164610 80 0.0 3.0 0.00 0.00 0.00 11 1010.3
20260903163559 80 2.0 3.0 0.00 0.00 0.00 11 1010.4
20260903162547 80 1.0 3.0 0.00 0.00 0.00 11 1010.4
20260903161536 82 1.0 3.0 0.00 0.00 0.00 11 1010.5
20260903160524 80 0.0 2.0 0.00 0.00 0.00 11 1010.4
20260903155510 82 0.0 4.0 0.00 0.00 0.00 11 1010.4
20260903154458 82 0.0 5.0 0.00 0.00 0.00 11 1010.5
20260903153446 82 4.0 6.0 0.00 0.00 0.00 11 1010.6
20260903152436 82 5.0 7.0 0.00 0.00 0.00 11 1010.5
20260903151424 86 5.0 6.0 0.00 0.00 0.00 11 1010.7
20260903150413 87 0.0 4.0 0.00 0.00 0.00 11 1010.7
20260903145402 87 2.0 4.0 0.00 0.00 0.00 11 1010.8
20260903144350 86 3.0 4.0 0.00 0.00 0.00 11 1010.7
20260903143339 86 4.0 6.0 0.00 0.00 0.00 11 1010.7
20260903142328 86 3.0 7.0 0.00 0.00 0.00 11 1010.8
20260903141316 86 3.0 5.0 0.00 0.00 0.00 11 1011.0
20260903140304 86 4.0 5.0 0.00 0.00 0.00 11 1011.1
20260903135253 84 4.0 6.0 0.00 0.00 0.00 11 1010.9
20260903134242 86 4.0 8.0 0.00 0.00 0.00 11 1011.0
20260903133231 84 5.0 7.0 0.00 0.00 0.00 11 1011.0
20260903132220 86 3.0 7.0 0.00 0.00 0.00 11 1010.9
20260903131208 86 2.0 5.0 0.00 0.00 0.00 11 1010.9
20260903130157 86 4.0 8.0 0.00 0.00 0.00 11 1011.0
20260903125145 86 3.0 6.0 0.00 0.00 0.00 11 1011.0
20260903124134 91 1.0 4.0 0.00 0.00 0.00 10 1011.0
20260903123123 91 1.0 7.0 0.00 0.00 0.00 97 1011.0
20260903122111 91 2.0 4.0 0.00 0.00 0.00 10 1011.1
20260903121101 91 0.0 8.0 0.00 0.00 0.00 11 1011.1
20260903120049 89 1.0 4.0 0.00 0.00 0.00 11 1011.1
20260903115037 87 2.0 4.0 0.00 0.00 0.00 11 1011.2
20260903114026 86 4.0 8.0 0.00 0.00 0.00 11 1011.3
20260903113015 89 2.0 6.0 0.00 0.00 0.00 11 1011.3
20260903112003 87 5.0 8.0 0.00 0.00 0.00 11 1011.4
20260903110952 89 3.0 10.0 0.00 0.00 0.00 11 1011.3
20260903105940 89 3.0 9.0 0.00 0.00 0.00 11 1011.5
20260903104929 89 4.0 8.0 0.00 0.00 0.00 11 1011.4
20260903103917 87 5.0 9.0 0.00 0.00 0.00 11 1011.5
20260903102905 87 5.0 11.0 0.00 0.00 0.00 11 1011.4
20260903101854 87 5.0 12.0 0.00 0.00 0.00 11 1011.4
20260903100842 87 3.0 11.0 0.00 0.00 0.00 11 1011.5
20260903095830 86 7.0 11.0 0.00 0.00 0.00 11 1011.6
20260903094818 86 8.0 12.0 0.00 0.00 0.00 11 1011.6
20260903093807 86 6.0 11.0 0.00 0.00 0.00 11 1011.6
20260903092755 86 5.0 14.0 0.00 0.00 0.00 11 1011.7
20260903091744 86 6.0 12.0 0.00 0.00 0.00 11 1011.5
20260903090733 86 7.0 14.0 0.00 0.00 0.00 11 1011.4
20260903085722 86 7.0 16.0 0.00 0.00 0.00 11 1011.4
20260903084710 86 7.0 13.0 0.00 0.00 0.00 11 1011.3
20260903083659 86 7.0 13.0 0.00 0.00 0.00 11 1011.3
20260903082648 87 6.0 11.0 0.00 0.00 0.00 11 1011.1
20260903081633 87 4.0 9.0 0.00 0.00 0.00 11 1011.1
20260903080621 86 4.0 8.0 0.00 0.00 0.00 11 1011.0
20260903075610 86 0.0 1.0 0.00 0.00 0.00 11 1010.9
20260903074558 86 1.0 3.0 0.00 0.00 0.00 11 1010.8
20260903073547 86 0.0 1.0 0.00 0.00 0.00 11 1010.6
20260903072536 84 0.0 0.0 0.00 0.00 0.00 11 1010.7
20260903071424 84 0.0 0.0 0.00 0.00 0.00 11 1010.8
20260903070108 82 0.0 2.0 0.00 0.00 0.00 11 1010.8
20260903065056 82 0.0 0.0 0.00 0.00 0.00 11 1010.7
20260903063637 82 0.0 0.0 0.00 0.00 0.00 11 1010.7
20260903062626 78 0.0 1.0 0.00 0.00 0.00 11 1010.6
20260903061614 75 0.0 1.0 0.00 0.00 0.00 11 1010.6
20260903060604 73 0.0 0.0 0.00 0.00 0.00 11 1010.7
20260903055552 73 0.0 1.0 0.00 0.00 0.00 11 1010.6
20260903054541 73 0.0 0.0 0.00 0.00 0.00 11 1010.5
20260903053530 71 0.0 0.0 0.00 0.00 0.00 11 1010.5
20260903052519 71 0.0 1.0 0.00 0.00 0.00 11 1010.4